Previsão horária em Aljezur Municipality

Hoje, 15 Janeiro, Sexta-feira

Tempo Temperatura Precipitação Vento Pressão Humidade
00:00 +7°C° 0 mm 5 m/s 761 mmHg 94%
01:00 +6°C° 0 mm 5 m/s 761 mmHg 95%
02:00 +6°C° 0 mm 5 m/s 761 mmHg 96%
03:00 +5°C° 0 mm 5 m/s 761 mmHg 96%
04:00 +4°C° 0 mm 4 m/s 761 mmHg 95%
05:00 +4°C° 0 mm 4 m/s 761 mmHg 95%
06:00 +4°C° 0 mm 4 m/s 761 mmHg 91%
07:00 +4°C° 0 mm 4 m/s 761 mmHg 87%
08:00 +5°C° 0 mm 3 m/s 762 mmHg 83%
09:00 +8°C° 0 mm 3 m/s 762 mmHg 73%
10:00 +10°C° 0 mm 3 m/s 762 mmHg 64%
11:00 +13°C° 0 mm 3 m/s 762 mmHg 54%
12:00 +13°C° 0 mm 4 m/s 761 mmHg 55%
13:00 +14°C° 0 mm 4 m/s 761 mmHg 56%
14:00 +14°C° 0 mm 4 m/s 760 mmHg 57%
15:00 +12°C° 0 mm 4 m/s 760 mmHg 67%
16:00 +11°C° 0 mm 4 m/s 760 mmHg 76%
17:00 +8°C° 0 mm 4 m/s 760 mmHg 85%
18:00 +7°C° 0 mm 4 m/s 761 mmHg 87%
19:00 +8°C° 0 mm 3 m/s 761 mmHg 88%
20:00 +7°C° 0 mm 3 m/s 761 mmHg 90%
21:00 +7°C° 0 mm 3 m/s 761 mmHg 89%
22:00 +7°C° 0 mm 3 m/s 761 mmHg 89%
23:00 +7°C° 0 mm 3 m/s 761 mmHg 88%

Amanhã, 16 Janeiro, Sábado

Tempo Temperatura Precipitação Vento Pressão Humidade
00:00 +5°C° 0 mm 3 m/s 761 mmHg 89%
01:00 +5°C° 0 mm 3 m/s 761 mmHg 91%
02:00 +5°C° 0 mm 3 m/s 760 mmHg 92%
03:00 +5°C° 0 mm 3 m/s 761 mmHg 92%
04:00 +4°C° 0 mm 3 m/s 761 mmHg 93%
05:00 +4°C° 0 mm 4 m/s 761 mmHg 93%
06:00 +4°C° 0 mm 4 m/s 761 mmHg 91%
07:00 +5°C° 0 mm 4 m/s 761 mmHg 88%
08:00 +5°C° 0 mm 4 m/s 761 mmHg 86%
09:00 +8°C° 0 mm 3 m/s 761 mmHg 75%
10:00 +11°C° 0 mm 3 m/s 761 mmHg 64%
11:00 +13°C° 0 mm 3 m/s 761 mmHg 53%
12:00 +13°C° 0 mm 3 m/s 761 mmHg 52%
13:00 +14°C° 0 mm 3 m/s 760 mmHg 50%
14:00 +14°C° 0 mm 3 m/s 760 mmHg 49%
15:00 +12°C° 0 mm 3 m/s 760 mmHg 59%
16:00 +10°C° 0 mm 3 m/s 760 mmHg 68%
17:00 +7°C° 0 mm 4 m/s 760 mmHg 78%
18:00 +8°C° 0 mm 3 m/s 761 mmHg 79%
19:00 +7°C° 0 mm 3 m/s 761 mmHg 80%
20:00 +5°C° 0 mm 3 m/s 761 mmHg 81%
21:00 +5°C° 0 mm 3 m/s 761 mmHg 81%
22:00 +5°C° 0 mm 3 m/s 761 mmHg 81%
23:00 +4°C° 0 mm 3 m/s 761 mmHg 81%

Depois de amanhã, 17 Janeiro, Domingo

Tempo Temperatura Precipitação Vento Pressão Humidade
00:00 +5°C° 0 mm 2 m/s 761 mmHg 80%
01:00 +5°C° 0 mm 2 m/s 761 mmHg 78%
02:00 +5°C° 0 mm 2 m/s 760 mmHg 77%
03:00 +5°C° 0 mm 2 m/s 760 mmHg 75%
04:00 +6°C° 0 mm 1 m/s 760 mmHg 73%
05:00 +6°C° 0 mm 1 m/s 760 mmHg 71%
06:00 +7°C° 0 mm 1 m/s 761 mmHg 69%
07:00 +8°C° 0 mm 1 m/s 761 mmHg 68%
08:00 +8°C° 0 mm 2 m/s 761 mmHg 67%
09:00 +11°C° 0 mm 1 m/s 761 mmHg 60%
10:00 +14°C° 0 mm 1 m/s 761 mmHg 53%
11:00 +18°C° 0 mm 1 m/s 762 mmHg 46%
12:00 +16°C° 0 mm 1 m/s 761 mmHg 47%
13:00 +16°C° 0 mm 1 m/s 760 mmHg 49%
14:00 +16°C° 0 mm 2 m/s 760 mmHg 50%
15:00 +14°C° 0 mm 1 m/s 760 mmHg 61%
16:00 +12°C° 0 mm 1 m/s 760 mmHg 71%
17:00 +10°C° 0 mm 1 m/s 760 mmHg 81%
18:00 +9°C° 0 mm 1 m/s 760 mmHg 82%
19:00 +9°C° 0 mm 1 m/s 760 mmHg 83%
20:00 +7°C° 0 mm 2 m/s 760 mmHg 84%
21:00 +7°C° 0 mm 2 m/s 760 mmHg 83%
22:00 +7°C° 0 mm 2 m/s 760 mmHg 81%
23:00 +7°C° 0 mm 2 m/s 760 mmHg 80%

18 Janeiro, Segunda-feira

Tempo Temperatura Precipitação Vento Pressão Humidade
00:00 +6°C° 0 mm 2 m/s 760 mmHg 80%
01:00 +6°C° 0 mm 2 m/s 759 mmHg 80%
02:00 +6°C° 0 mm 2 m/s 759 mmHg 79%
03:00 +6°C° 0 mm 2 m/s 759 mmHg 76%
04:00 +5°C° 0 mm 2 m/s 759 mmHg 73%
05:00 +5°C° 0 mm 2 m/s 758 mmHg 70%
06:00 +6°C° 0 mm 2 m/s 759 mmHg 66%
07:00 +7°C° 0 mm 2 m/s 759 mmHg 63%
08:00 +7°C° 0 mm 2 m/s 759 mmHg 60%
09:00 +10°C° 0 mm 2 m/s 759 mmHg 57%
10:00 +13°C° 0 mm 2 m/s 759 mmHg 55%
11:00 +16°C° 0 mm 2 m/s 759 mmHg 52%
12:00 +16°C° 0 mm 2 m/s 759 mmHg 55%
13:00 +16°C° 0 mm 2 m/s 758 mmHg 57%
14:00 +16°C° 0 mm 2 m/s 758 mmHg 60%
15:00 +14°C° 0 mm 2 m/s 758 mmHg 70%
16:00 +12°C° 0 mm 2 m/s 758 mmHg 79%
17:00 +9°C° 0 mm 2 m/s 758 mmHg 89%
18:00 +9°C° 0 mm 2 m/s 758 mmHg 90%
19:00 +8°C° 0 mm 2 m/s 758 mmHg 91%
20:00 +8°C° 0 mm 2 m/s 759 mmHg 92%
21:00 +8°C° 0 mm 2 m/s 759 mmHg 92%
22:00 +8°C° 0 mm 2 m/s 759 mmHg 93%
23:00 +8°C° 0 mm 2 m/s 759 mmHg 93%

19 Janeiro, Terça-feira

Tempo Temperatura Precipitação Vento Pressão Humidade
00:00 +7°C° 0 mm 2 m/s 758 mmHg 93%
01:00 +7°C° 0 mm 2 m/s 758 mmHg 93%
02:00 +7°C° 0 mm 2 m/s 758 mmHg 93%
03:00 +7°C° 0 mm 2 m/s 757 mmHg 93%
04:00 +7°C° 0 mm 3 m/s 757 mmHg 93%
05:00 +7°C° 0 mm 3 m/s 757 mmHg 93%
06:00 +8°C° 0 mm 3 m/s 757 mmHg 91%
07:00 +9°C° 0 mm 3 m/s 757 mmHg 89%
08:00 +8°C° 0 mm 4 m/s 757 mmHg 87%
09:00 +11°C° 0 mm 4 m/s 757 mmHg 81%
10:00 +12°C° 0 mm 5 m/s 757 mmHg 75%
11:00 +14°C° 0 mm 5 m/s 757 mmHg 69%
12:00 +14°C° 0 mm 5 m/s 757 mmHg 69%
13:00 +14°C° 0 mm 5 m/s 756 mmHg 69%
14:00 +14°C° 0 mm 5 m/s 756 mmHg 70%
15:00 +13°C° 0 mm 5 m/s 756 mmHg 72%
16:00 +13°C° 0 mm 5 m/s 755 mmHg 75%
17:00 +12°C° 0 mm 5 m/s 755 mmHg 78%
18:00 +12°C° 0 mm 5 m/s 755 mmHg 81%
19:00 +10°C° 0 mm 5 m/s 755 mmHg 84%
20:00 +10°C° 0 mm 6 m/s 755 mmHg 87%
21:00 +11°C° 0 mm 6 m/s 755 mmHg 85%
22:00 +11°C° 0 mm 7 m/s 754 mmHg 84%
23:00 +12°C° 0 mm 7 m/s 754 mmHg 83%

20 Janeiro, Quarta-feira

Tempo Temperatura Precipitação Vento Pressão Humidade
00:00 +12°C° 0 mm 7 m/s 753 mmHg 83%
01:00 +12°C° 0 mm 8 m/s 753 mmHg 83%
02:00 +12°C° 0 mm 8 m/s 752 mmHg 84%
03:00 +12°C° 0.6 mm 9 m/s 752 mmHg 86%
04:00 +12°C° 0.6 mm 9 m/s 751 mmHg 87%
05:00 +12°C° 0.6 mm 9 m/s 751 mmHg 89%
06:00 +12°C° 3 mm 10 m/s 750 mmHg 91%
07:00 +13°C° 3 mm 11 m/s 750 mmHg 93%
08:00 +13°C° 3 mm 12 m/s 750 mmHg 94%
09:00 +13°C° 2 mm 10 m/s 750 mmHg 92%
10:00 +15°C° 2 mm 9 m/s 750 mmHg 90%
11:00 +16°C° 2 mm 7 m/s 750 mmHg 88%
12:00 +16°C° 0.2 mm 7 m/s 750 mmHg 85%
13:00 +16°C° 0.2 mm 7 m/s 750 mmHg 82%
14:00 +16°C° 0.2 mm 7 m/s 750 mmHg 79%
15:00 +15°C° 0.2 mm 7 m/s 750 mmHg 84%
16:00 +14°C° 0.2 mm 6 m/s 750 mmHg 89%
17:00 +13°C° 0.2 mm 6 m/s 751 mmHg 93%
18:00 +13°C° 0.1 mm 5 m/s 751 mmHg 94%
19:00 +13°C° 0.1 mm 5 m/s 752 mmHg 94%
20:00 +12°C° 0.1 mm 5 m/s 752 mmHg 95%
21:00 +12°C° 0.1 mm 4 m/s 753 mmHg 95%
22:00 +12°C° 0.1 mm 4 m/s 753 mmHg 95%
23:00 +12°C° 0.1 mm 4 m/s 753 mmHg 95%
Mostrar mais

Necessitamos do seu Consentimento

A Meteoprog e os seus Fornecedores de Serviços podem armazenar e aceder a dados pessoais como cookies, identificadores do dispositivo ou outras tecnologias semelhantes existentes no seu dispositivo e processar estes dados para personalizar conteúdos e anúncios, assim como funcionalidades nas redes sociais e análise de tráfego.

  • Armazenar e/ou aceder a informações no seu dispositivo

    Os cookies, identificadores do dispositivo ou outras informações podem ser armazenados ou acedidos no seu dispositivo, para os fins acima indicados.

  • Anúncios e conteúdos personalizados, medição de anúncios e conteúdos, dados sobre o público-alvo e desenvolvimento de produtos

    Os anúncios e os conteúdos podem ser personalizados com base num perfil. Podem ser adicionados dados adicionais para uma maior personalização dos anúncios e dos conteúdos. A eficácia dos anúncios e dos conteúdos pode ser medida. Podem ser obtidas informações sobre o público que visualizou os anúncios e os conteúdos. Estes dados podem ser usados para desenvolver ou melhorar sistemas, softwares ou a experiência do utilizador.

Ao clicar em "Eu concordo”, permitirá o uso de cookies, identificadores do dispositivo e web beacons mencionados ou outras tecnologias semelhantes. As configurações do navegador do seu dispositivo podem ser alteradas.

Para certos fins, podem ser invocados interesses legítimos ao invés de consentimento. Pode ler mais informação sobre este assunto na nossa Política de Privacidade e Cookies.